Вернуться в каталог

STARLINK-6367

АктивенСвязьVLEO
NORAD 57376·PAYLOAD·🇺🇸 United States

Запущен Jul 16, 2023 с Cape Canaveral Space Force Station

Loading…

Ближайшие Пролёты (ближайшие 24 часа)

TLE

СвежийSource: CelesTrak SupGP

Эпоха: Sep 15, 2026, 03:06 UTC

1 57376C 23099BA  26258.12965278 -.00024124  00000+0 -87391-3 0  2587
2 57376  42.9992 248.3208 0001185 260.2129  69.0186 15.27585114    19

Отслеживайте STARLINK-6367 в реальном времени с AllMySat

Download on the App Store